Location: Ash Swamp
(41.5170°N, 74.6157°W)
Time: 15:44:45
(UTC+00:00)

SPOT 5 - Pass Details

Date: 14 July 2020
Orbit: 622 x 816 km, 98.3° (Epoch: 05 August)

Event Time Altitude Azimuth Distance (km) Brightness Sun altitude
Exits shadow 02:02:41 21° 122° (ESE) 1,589 4.1 -14.1°
Maximum altitude 02:05:16 36° 70° (ENE) 1,109 3.6 -14.5°
Drops below altitude 10° 02:09:29 10° 5° (N) 2,120 5.9 -15.0°
Sets 02:11:48 0° 356° (N) 3,010 7.0 -15.3°
